#timestamp,LO_Frequency,Hit,StdDev 
1598850015.1,286046991.8,Y
1598850035.9,286046998.0,P
1598850055.7,286046997.3,P
1598850075.5,286046999.0,P
1598850095.4,286047001.5,N
1598850115.2,286047001.1,N
1598850135.1,286046999.4,N
1598850136.0,286046999.4,N
1598850155.8,286047000.4,N
1598850175.6,286046999.5,N
1598850195.5,286046996.6,N
1598850215.3,286046999.1,N
1598850235.1,286046998.9,N
1598850255.9,286046999.1,N
1598850275.7,286046999.4,N
1598850295.6,286046997.0,N
1598850315.4,286046999.2,N
1598850335.2,286046999.5,N
1598850355.1,286046996.5,N
1598850356.0,286046996.5,N
1598850375.8,286046999.1,N
1598850395.6,286046998.6,N
1598850415.5,286046996.8,N
1598850435.3,286046996.8,N
1598850455.2,286046997.8,N
1598850475.9,286046996.6,N
1598850495.7,286046997.2,N
1598850515.6,286046996.9,N
1598850535.4,286046999.5,N
1598850555.3,286046997.3,N
1598850575.1,286046999.0,N
1598850576.0,286046999.0,N
1598850595.8,286047002.5,N
1598850615.7,286047001.2,N
1598850635.5,286046998.4,N
1598850655.3,286046999.2,N
1598850675.2,286046998.8,N
1598850695.0,286046998.8,N
1598850695.9,286046998.8,N
1598850715.8,286046999.1,N
1598850735.6,286046996.5,N
1598850755.4,286046997.4,N
1598850775.3,286046996.8,N
1598850795.1,286046996.5,N
1598850815.9,286047000.6,N
1598850835.7,286046999.4,N
1598850855.5,286046999.5,N
1598850875.4,286046996.8,N
1598850895.2,286046996.8,N
1598850915.0,286046999.6,N
1598850915.9,286046999.6,N
1598850935.8,286046996.8,N
1598850955.6,286046997.3,N
1598850975.5,286046997.5,N
1598850995.3,286046998.0,N
1598851015.1,286046997.2,N
1598851035.9,286046995.1,Y
1598851055.7,286046999.1,P
1598851075.5,286047003.6,P
1598851095.4,286047004.3,N
1598851115.2,286047003.7,N
1598851135.1,286047002.2,N
1598851136.0,286047002.2,N
1598851155.8,286047000.3,N
1598851175.6,286047000.3,N
1598851195.5,286047003.5,N
1598851215.3,286047002.7,N
1598851235.1,286047000.2,N
1598851255.9,286046999.7,N
1598851275.7,286047002.4,N
1598851295.6,286047004.1,N
1598851315.4,286047002.4,N
1598851335.2,286047001.1,N
1598851355.1,286047000.8,N
1598851356.0,286047000.8,N
1598851375.8,286047000.5,N
1598851395.6,286047000.9,N
1598851415.5,286047005.5,Y
1598851435.3,286047001.5,P
1598851455.2,286047000.5,P
1598851475.0,286047001.2,N
1598851475.9,286047001.2,N
1598851495.7,286047000.3,N
1598851515.6,286046998.5,Y
1598851535.4,286046996.6,P
1598851555.3,286046998.9,N
1598851575.1,286047000.3,N
1598851576.0,286047000.3,N
1598851595.9,286047000.1,N
1598851615.7,286047002.5,N
1598851635.5,286046999.9,N
1598851655.4,286047000.1,N
1598851675.2,286047000.9,N
1598851695.0,286046999.3,N
1598851695.9,286046999.3,N
1598851715.8,286046996.5,N
1598851735.6,286046999.5,N
1598851755.5,286047000.9,N
1598851775.3,286046999.7,N
1598851795.1,286047000.9,N
1598851815.9,286046999.9,N
1598851835.7,286046998.4,N
1598851855.5,286047001.1,N
1598851875.5,286046999.7,N
1598851895.4,286047003.8,N
1598851915.2,286047003.7,N
1598851935.1,286046999.8,N
1598851936.0,286046999.8,N
1598851955.8,286047001.1,N
1598851975.6,286046998.9,N
1598851995.5,286047000.5,N
1598852015.3,286047000.5,N
1598852035.2,286047002.4,N
1598852055.9,286047002.3,N
1598852075.7,286047000.3,N
1598852095.6,286047000.4,N
1598852115.4,286047002.3,N
1598852135.3,286047003.2,N
1598852155.1,286047004.4,N
1598852156.0,286047004.4,N
1598852175.8,286046999.7,N
1598852195.7,286047002.4,N
1598852215.5,286047000.4,N
1598852235.3,286047002.4,N
1598852255.2,286046998.2,N
1598852275.0,286046999.3,N
1598852275.9,286046999.3,N
1598852295.8,286046998.4,N
1598852315.6,286046996.9,N
1598852335.4,286046996.7,N
1598852355.3,286046998.9,N
1598852375.1,286047000.7,N
1598852395.9,286046999.3,N
1598852415.7,286046996.7,N
1598852435.5,286046998.3,N
1598852455.4,286047001.1,N
1598852475.2,286046999.6,N
1598852495.1,286047000.8,N
1598852496.0,286047000.8,N
1598852515.8,286047000.0,N
1598852535.6,286046998.8,N
1598852555.5,286046997.1,N
1598852575.3,286046995.0,N
1598852595.2,286046995.9,N
1598852615.9,286046993.3,N
1598852635.7,286046993.7,N
1598852655.6,286046996.4,N
1598852675.4,286046995.6,N
1598852695.2,286046995.1,N
1598852715.1,286046996.4,N
1598852716.0,286046996.4,N
1598852735.8,286046995.3,N
1598852755.7,286046995.8,N
1598852775.5,286046994.0,N
1598852795.3,286046997.5,N
1598852815.2,286046995.6,N
1598852835.0,286046993.7,N
1598852835.9,286046993.7,N
1598852855.8,286046993.4,N
1598852875.6,286046993.9,N
1598852895.4,286046992.4,Y
1598852915.3,286046995.0,P
1598852935.1,286046995.0,P
1598852955.8,286046996.8,P
1598852975.7,286046997.5,N
1598852995.5,286046999.4,N
1598853015.4,286046997.2,N
1598853035.2,286046996.4,N
1598853055.0,286046993.4,Y
1598853055.9,286046993.4,P
1598853075.8,286046996.6,N
1598853095.6,286047000.8,N
1598853115.4,286047004.3,N
1598853135.3,286047002.3,N
1598853155.1,286047001.9,N
1598853175.9,286047003.1,N
1598853195.7,286047002.2,N
1598853215.6,286047001.8,N
1598853235.4,286047002.6,N
1598853255.2,286047002.8,N
1598853275.1,286047000.5,N
1598853276.0,286047000.5,N
1598853295.8,286046998.6,N
1598853315.7,286046998.9,N
1598853335.5,286047000.1,N
1598853355.3,286047002.3,N
1598853375.2,286047002.8,N
1598853395.0,286046998.5,N
1598853395.9,286046998.5,N
1598853415.7,286046999.6,N
1598853435.6,286046999.4,N
1598853455.4,286046999.5,N
1598853475.3,286046999.6,N
1598853495.1,286047001.1,N
1598853515.8,286046999.7,N
1598853535.7,286047000.2,N
1598853555.5,286047001.2,N
1598853575.4,286046999.4,N
1598853595.2,286046998.4,N
